W1LH-4 Weather Reports


time (UTC)temp
F
wind
direction
speed
knots
gust
knots
rain 1hr
in
rain 24hr
in
rain mn
in
humidity
%
barometer
mb
20260508121847 46 327 6.1 13.9 0.00 0.02 0.00 73 1005.1
20260508120351 45 304 7.0 13.0 0.00 0.02 0.00 74 1005.0
20260508114859 45 329 7.0 11.3 0.00 0.02 0.00 74 1005.0
20260508113402 44 9 4.3 10.4 0.00 0.02 0.00 75 1004.9
20260508111900 43 306 6.1 11.3 0.00 0.02 0.00 76 1004.6
20260508110346 43 322 3.5 9.6 0.00 0.02 0.02 76 1004.5
20260508104850 42 350 6.1 9.6 0.00 0.02 0.02 76 1004.4
20260508103353 41 333 5.2 9.6 0.00 0.02 0.02 76 1004.3
20260508101857 41 310 4.3 9.6 0.00 0.02 0.02 76 1004.4
20260508100349 40 296 5.2 9.6 0.00 0.02 0.02 76 1004.3
20260508094853 40 283 3.5 7.8 0.00 0.02 0.02 77 1004.3
20260508093357 39 325 3.5 9.6 0.00 0.02 0.02 76 1004.1
20260508091845 39 311 5.2 9.6 0.00 0.02 0.02 76 1004.0
20260508090349 39 295 3.5 7.8 0.00 0.02 0.02 74 1004.1
20260508084852 40 317 4.3 9.6 0.00 0.02 0.02 73 1003.9
20260508083400 41 319 3.5 7.0 0.00 0.02 0.02 73 1003.8
20260508081842 41 335 3.5 7.8 0.00 0.02 0.02 73 1003.7
20260508080346 41 338 3.5 8.7 0.00 0.10 0.02 71 1003.8
20260508074854 41 317 5.2 7.8 0.00 0.10 0.02 71 1003.8
20260508073357 41 336 4.3 7.0 0.00 0.10 0.02 70 1003.9
20260508071901 42 310 4.3 8.7 0.00 0.10 0.02 69 1004.0
20260508070346 42 294 4.3 8.7 0.00 0.20 0.02 69 1003.6
20260508064851 42 327 2.6 8.7 0.00 0.20 0.02 69 1003.8
20260508063354 42 335 4.3 10.4 0.00 0.20 0.02 69 1004.0
20260508061841 42 342 4.3 8.7 0.00 0.20 0.02 69 1003.9
20260508060406 42 347 3.5 9.6 0.00 0.22 0.02 68 1004.1
20260508054848 42 327 4.3 9.6 0.00 0.22 0.02 68 1004.2
20260508053356 43 300 3.5 9.6 0.00 0.22 0.02 68 1004.3
20260508051901 43 294 4.3 7.0 0.00 0.22 0.02 69 1004.5
20260508050345 43 319 3.5 7.0 0.00 0.23 0.02 68 1004.6
20260508044854 43 315 4.3 9.6 0.00 0.23 0.02 68 1004.8
20260508043357 44 316 3.5 7.0 0.00 0.23 0.02 69 1004.9
20260508041841 44 306 2.6 7.0 0.00 0.23 0.02 69 1004.7
20260508040348 45 327 3.5 7.8 0.00 0.30 0.02 69 1004.9
20260508034853 46 297 3.5 7.8 0.00 0.30 0.02 66 1004.7
20260508033358 46 315 5.2 9.6 0.00 0.30 0.02 65 1004.5
20260508031846 47 323 3.5 9.6 0.00 0.30 0.02 63 1004.7
20260508030348 48 323 4.3 10.4 0.00 0.37 0.02 62 1004.6
20260508024852 48 311 3.5 7.8 0.00 0.37 0.02 61 1004.6
20260508023359 48 330 4.3 11.3 0.00 0.37 0.02 61 1004.6
20260508021843 48 302 5.2 9.6 0.00 0.37 0.02 68 1004.6
20260508020348 48 296 4.3 8.7 0.01 0.39 0.02 75 1004.8
20260508014854 49 303 4.3 11.3 0.01 0.39 0.02 70 1004.8
20260508013358 48 327 3.5 8.7 0.01 0.39 0.02 60 1004.7
20260508011901 48 336 4.3 10.4 0.01 0.39 0.02 63 1004.4
20260508010348 49 335 8.7 18.2 0.00 0.38 0.01 74 1004.5
20260508004851 52 13 5.2 9.6 0.00 0.38 0.01 74 1004.2
20260508003350 52 319 2.6 5.2 0.00 0.38 0.01 73 1003.9
20260508001854 53 269 1.7 5.2 0.00 0.38 0.01 72 1003.7
20260508000404 53 271 3.5 6.1 0.00 0.38 0.01 71 1003.6
20260507234844 53 290 2.6 7.0 0.00 0.38 0.01 69 1003.5
20260507233347 54 275 0.9 7.0 0.00 0.38 0.01 67 1003.3
20260507231855 55 279 2.6 8.7 0.00 0.38 0.01 64 1002.9
20260507230359 55 327 4.3 9.6 0.00 0.38 0.01 65 1002.4
20260507224900 55 315 7.0 13.0 0.00 0.38 0.01 63 1002.3
20260507223348 56 325 3.5 7.0 0.00 0.38 0.01 70 1002.4
20260507221912 56 229 2.6 4.3 0.00 0.38 0.01 69 1002.2
20260507220353 57 225 2.6 6.1 0.00 0.38 0.01 68 1002.1
20260507214900 57 211 2.6 7.8 0.00 0.38 0.01 67 1002.0
20260507213422 57 219 5.2 10.4 0.00 0.38 0.01 65 1002.0
20260507211844 59 236 5.2 9.6 0.00 0.38 0.01 61 1001.9
20260507210346 60 221 5.2 9.6 0.00 0.38 0.01 60 1001.9
20260507204853 62 271 5.2 11.3 0.00 0.38 0.01 46 1001.7
20260507203356 62 229 3.5 10.4 0.00 0.38 0.01 42 1001.6
20260507201900 61 24 4.3 7.8 0.00 0.38 0.01 43 1001.5
20260507200346 62 348 5.2 9.6 0.00 0.38 0.01 42 1001.5
20260507194849 60 323 4.3 10.4 0.00 0.38 0.01 45 1001.5
20260507193411 61 28 5.2 13.0 0.00 0.38 0.01 40 1001.7
20260507191838 61 25 284.2 284.2 0.00 0.00 0.01 40 1001.9
20260507190343 60 28 6.1 13.0 0.00 0.38 0.01 45 1001.9
20260507184846 60 46 7.0 13.0 0.00 0.38 0.01 45 1002.1
20260507183409 59 360 5.2 13.0 0.00 0.38 0.01 50 1002.3
20260507181855 59 355 5.2 13.9 0.00 0.38 0.01 53 1002.4
20260507180358 58 334 7.8 13.9 0.00 0.38 0.01 52 1002.4
20260507174842 58 355 7.0 12.2 0.00 0.38 0.01 56 1002.3
20260507173348 58 355 6.1 14.8 0.01 0.38 0.01 57 1002.4
20260507171852 58 360 7.8 13.0 0.01 0.38 0.01 57 1002.6
20260507170353 57 330 8.7 10.4 0.01 0.38 0.01 59 1002.5
20260507164900 56 355 6.1 11.3 0.01 0.38 0.01 61 1002.7
20260507163345 56 317 7.0 11.3 0.00 0.37 0.00 61 1002.9
20260507161847 55 329 5.2 11.3 0.00 0.37 0.00 66 1003.2
20260507160355 55 325 4.3 11.3 0.00 0.37 0.00 66 1003.4
20260507154859 54 269 6.1 10.4 0.00 0.37 0.00 71 1003.5
20260507153344 54 304 8.7 12.2 0.00 0.37 0.00 70 1003.6
20260507151849 53 5 5.2 12.2 0.00 0.37 0.00 75 1003.8
20260507150411 53 36 8.7 12.2 0.00 0.37 0.00 74 1003.8
20260507144854 52 330 6.1 9.6 0.00 0.37 0.00 71 1004.1
20260507143343 51 330 6.1 10.4 0.00 0.37 0.00 72 1004.2
20260507141906 51 344 4.3 11.3 0.00 0.37 0.00 70 1004.4
20260507140349 50 5 5.2 10.4 0.00 0.37 0.00 56 1004.7
20260507134852 50 31 6.1 13.0 0.00 0.37 0.00 49 1004.5
20260507133340 49 346 5.2 7.8 0.00 0.37 0.00 31 1004.5
20260507131845 49 309 6.1 9.6 0.00 0.37 0.00 18 1004.6
20260507130348 48 309 3.5 8.7 0.00 0.37 0.00 3 1004.4
20260507124857 48 355 4.3 8.7 0.00 0.37 0.00 1 1004.1
20260507123400 48 5 6.1 9.6 0.00 0.37 0.00 1 1004.4